Overview Statistics Trail Chart Weather Telemetry Raw packets
 

This is the latest recevied weather packets stored in our database for station/object ED1ZAI-13. If no packets are shown the sender has not sent any weather packets the latest 10 day(s).

<< 1 2 3 4 5 6 >>
Time Temp. Humidity Pressure Rain* Wind** Luminosity Snow
1788599078 32.22° C 17% 1024.9 hPa - - - -
1788598478 30° C 21% 1024.8 hPa - - - -
1788597877 28.33° C 22% 1024.7 hPa - - - -
1788597277 29.44° C 21% 1024.7 hPa - - - -
1788596677 27.22° C 26% 1024.8 hPa - - - -
1788595932 25° C 30% 1024.7 hPa - - - -
1788595332 25° C 28% 1024.7 hPa - - - -
1788594732 23.89° C 31% 1024.6 hPa - - - -
1788594134 23.33° C 30% 1024.7 hPa - - - -
1788593533 22.22° C 31% 1024.6 hPa - - - -
1788592933 21.67° C 32% 1024.7 hPa - - - -
1788592332 21.11° C 36% 1024.7 hPa - - - -
1788591732 21.11° C 36% 1024.6 hPa - - - -
1788591134 21.11° C 35% 1024.5 hPa - - - -
1788590533 20.56° C 35% 1024.4 hPa - - - -
1788589933 20° C 35% 1024.4 hPa - - - -
1788589333 20° C 36% 1024.4 hPa - - - -
1788588732 20° C 38% 1024.2 hPa - - - -
1788588133 19.44° C 40% 1024.1 hPa - - - -
1788587533 18.89° C 42% 1023.9 hPa - - - -
1788586932 19.44° C 40% 1024.1 hPa - - - -
1788586332 20° C 39% 1024.1 hPa - - - -
1788585732 20° C 38% 1024.2 hPa - - - -
1788585132 20.56° C 36% 1024.1 hPa - - - -
1788584532 21.11° C 34% 1024.3 hPa - - - -

* Rain since midnight (hover to see other rain measurements)
** Current wind speed in m/s (hover to see current wind gust speed)